Regional Weather Roundup
Issued by NWS Goodland, KS

Home | Current Version | Previous Version | Graphics & Text | Print | Product List | Glossary On
Versions: 1 2 3 4 5 6 7 8 9 10 11 12 13 14 15 16 17 18 19 20 21 22 23 24 25 26 27 28 29 30 31 32 33 34 35 36 37 38 39 40 41 42 43 44 45 46 47 48 49 50
000
ASUS43 KGLD 091659
RWRGLD

GOODLAND FORECAST AREA HOURLY WEATHER ROUNDUP
NATIONAL WEATHER SERVICE GOODLAND KS
1100 AM MDT WED JUL 09 2014

...OFFICIAL OBSERVATIONS...

CITY           SKY/WX    TMP DP  RH WIND       PRES   REMARKS
GOODLAND KS    MOSUNNY   80  61  52 S23       30.09F
HILL CITY KS   SUNNY     85  56  37 S16G23    30.08F
IMPERIAL NEB   PTSUNNY   82  56  40 S12       30.11R
MCCOOK NEB     MOSUNNY   83  57  41 S15       30.07S
AKRON CO       SUNNY     81  51  35 CALM      30.13R
BURLINGTON CO  MOSUNNY   80  59  48 S22G29    30.10S
LIMON CO       SUNNY     80  51  36 S14       30.14F
$$

...UNOFFICIAL OBSERVATIONS...

CITY           SKY/WX    TMP DP  RH WIND       PRES   REMARKS
COLBY KS       MOSUNNY   82  61  47 S18G26    30.10S
GOVE KS          N/A     80  32  17 CALM        N/A
NORTON KS      SUNNY     84  52  32 S14G23    30.07S
SHARON SPRINGS   N/A     82  59  45 S23         N/A
YUMA CO          N/A     81  57  43 CALM        N/A
$$



USA.gov is the U.S. government's official web portal to all federal, state and local government web resources and services.